Change the Weather History Date:

Thursday, July 11, 2013

  Actual Average (LTCC) Record (LTCC)
Temperature  
Mean Temperature 90 °F -  
Max Temperature 107 °F 99 °F 107 °F (2010)
Min Temperature 72 °F 70 °F 66 °F (1998)
Cooling Degree Days 24    
Growing Degree Days 40 (Base 50)    
Moisture  
Dew Point 49 °F    
Average Humidity 27    
Maximum Humidity 69    
Minimum Humidity 5    
Precipitation  
Precipitation 0.00 in - - ()
Sea Level Pressure  
Sea Level Pressure 29.42 in    
Wind  
Wind Speed 5 mph ()    
Max Wind Speed 12 mph    
Max Gust Speed -    
Visibility 12.0 miles    
Events      
Averages and records for this station are not official NWS values.
T = Trace of Precipitation, MM = Missing Value Source: Averaged Metar Reports

Daily Weather History Graph

Daily Weather History Graph

Search for Another Location

Airport or City:

Trip Planner

Search our weather history database for the weather conditions in past years. The results will help you decide how hot, cold, wet, or windy it might be!

Date:

Astronomy

Jul. 11, 2013 Rise Set
Actual Time 5:02 AM EEST 7:39 PM EEST
Civil Twilight 4:31 AM EEST 8:10 PM EEST
Nautical Twilight 3:53 AM EEST 8:48 PM EEST
Astronomical Twilight 3:10 AM EEST 9:31 PM EEST
Moon 7:56 AM EEST (7/11) 9:13 PM EEST (7/11)
Length of Visible Light 15h 38m
Length of Day
14h 36m
Waxing Crescent, 9% of the Moon is Illuminated
Jul 11
Waxing Crescent
Jul 16
First Quarter
Jul 22
Full
Jul 29
Last Quarter
Aug 7
New

Hourly Weather History & Observations

Time (EEST) Temp. Heat Index Dew Point Humidity Pressure Visibility Wind Dir Wind Speed Gust Speed Precip Events Conditions
12:00 AM 74 °F - 41 °F 20% 29.32 in 12 mi East 2.3 mph - -  
12:20 AM 75.2 °F - 57.2 °F 53% 29.44 in - NNE 9.2 mph - N/A   Clear
12:50 AM 77.0 °F - 53.6 °F 44% 29.44 in - Variable 3.5 mph - N/A   Clear
1:20 AM 77.0 °F - 53.6 °F 44% 29.44 in - South 4.6 mph - N/A   Clear
1:50 AM 71.6 °F - 59.0 °F 64% 29.44 in - Variable 2.3 mph - N/A   Clear
2:20 AM 71.6 °F - 59.0 °F 64% 29.44 in - North 4.6 mph - N/A   Clear
2:50 AM 71.6 °F - 60.8 °F 69% 29.44 in - NNE 5.8 mph - N/A   Clear
3:00 AM 77 °F - 38 °F 14% 29.29 in 12 mi South 2.3 mph - -  
3:20 AM 71.6 °F - 57.2 °F 60% 29.44 in - NE 6.9 mph - N/A   Clear
3:50 AM 69.8 °F - 57.2 °F 64% 29.44 in - NNE 6.9 mph - N/A   Clear
4:00 AM 93 °F - 49 °F 14% 29.34 in 12 mi West 3.5 mph - -  
4:20 AM 68.0 °F - 57.2 °F 68% 29.44 in - NNE 6.9 mph - N/A   Clear
4:50 AM 68.0 °F - 57.2 °F 68% 29.47 in - NE 6.9 mph - N/A   Clear
5:20 AM 68.0 °F - 57.2 °F 68% 29.47 in - NE 5.8 mph - N/A   Clear
5:50 AM 69.8 °F - 59.0 °F 68% 29.47 in - NNE 5.8 mph - N/A   Clear
6:00 AM 93 °F - 49 °F 14% 29.34 in 12 mi West 3.5 mph - -  
6:20 AM 75.2 °F - 55.4 °F 50% 29.47 in - Variable 2.3 mph - N/A   Clear
6:50 AM 78.8 °F - 55.4 °F 44% 29.47 in - Variable 2.3 mph - N/A   Clear
7:20 AM 80.6 °F 80.8 °F 57.2 °F 45% 29.47 in - Variable 1.2 mph - N/A   Clear
7:50 AM 84.2 °F - 50.0 °F 30% 29.47 in - West 4.6 mph - N/A   Clear
8:20 AM 86.0 °F - 50.0 °F 29% 29.47 in - Variable 2.3 mph - N/A   Clear
8:50 AM 87.8 °F - 50.0 °F 27% 29.47 in - WSW 3.5 mph - N/A   Clear
9:00 AM 94 °F - 48 °F 13% 29.33 in 12 mi WSW 8.1 mph - -  
9:20 AM 89.6 °F - 51.8 °F 27% 29.47 in - South 4.6 mph - N/A   Clear
9:50 AM 91.4 °F - 51.8 °F 26% 29.47 in - SSW 4.6 mph - N/A   Clear
10:00 AM 93 °F - 49 °F 14% 29.34 in 12 mi West 3.5 mph - -  
10:20 AM 93.2 °F 90.8 °F 53.6 °F 26% 29.47 in - South 4.6 mph - N/A   Clear
10:50 AM 95.0 °F - 50.0 °F 22% 29.47 in - SSW 4.6 mph - N/A   Clear
11:00 AM 95 °F - 51 °F 14% 29.34 in 12 mi North 3.5 mph - -  
11:20 AM 96.8 °F - 48.2 °F 19% 29.47 in - West 3.5 mph - N/A   Clear
11:50 AM 100.4 °F - 46.4 °F 16% 29.47 in - Variable 4.6 mph - N/A   Clear
12:00 PM 100 °F - 50 °F 11% 29.31 in 12 mi NNW 3.5 mph - -  
12:20 PM 102.2 °F - 46.4 °F 15% 29.44 in - Variable 5.8 mph - N/A   Clear
12:50 PM 102.2 °F - 46.4 °F 15% 29.44 in - West 6.9 mph - N/A   Clear
1:00 PM 102 °F - 49 °F 9% 29.30 in 12 mi WNW 6.9 mph - -  
1:20 PM 105.8 °F - 46.4 °F 14% 29.44 in - WSW 11.5 mph - N/A   Clear
1:50 PM 105.8 °F - 46.4 °F 14% 29.44 in - West 11.5 mph - N/A   Clear
2:00 PM 105 °F - 46 °F 7% 29.29 in 12 mi West 8.1 mph - -  
2:20 PM 107.6 °F - 42.8 °F 11% 29.44 in - WSW 10.4 mph - N/A   Clear
2:50 PM 105.8 °F - 44.6 °F 13% 29.42 in - West 10.4 mph - N/A   Clear
3:00 PM 105 °F - 46 °F 7% 29.28 in 12 mi NW 9.2 mph - -  
3:20 PM 107.6 °F - 44.6 °F 12% 29.42 in - West 10.4 mph - N/A   Clear
3:50 PM 107.6 °F - 44.6 °F 12% 29.42 in - WSW 9.2 mph - N/A   Clear
4:00 PM 106 °F - 45 °F 7% 29.28 in 12 mi WNW 6.9 mph - -   Scattered Clouds
4:20 PM 107.6 °F - 44.6 °F 12% 29.42 in - West 9.2 mph - N/A   Clear
4:50 PM 107.6 °F - 44.6 °F 12% 29.42 in - WSW 8.1 mph - N/A   Clear
5:00 PM 106 °F - 45 °F 7% 29.28 in 12 mi WNW 6.9 mph - -   Scattered Clouds
5:20 PM 105.8 °F - 46.4 °F 14% 29.42 in - West 8.1 mph - N/A   Clear
5:50 PM 105.8 °F - 46.4 °F 14% 29.42 in - West 5.8 mph - N/A   Clear
6:00 PM 105 °F - 40 °F 5% 29.28 in 12 mi SSW 5.8 mph - -   Scattered Clouds
6:20 PM 104.0 °F - 50.0 °F 16% 29.42 in - Variable 2.3 mph - N/A   Clear
6:50 PM 100.4 °F - 50.0 °F 18% 29.42 in - South 5.8 mph - N/A   Clear
7:20 PM 100.4 °F - 41.0 °F 13% 29.42 in - South 9.2 mph - N/A   Clear
7:50 PM 98.6 °F - 41.0 °F 14% 29.42 in - South 9.2 mph - N/A   Clear
8:00 PM 88 °F - 41 °F 11% 29.35 in 12 mi Calm Calm - -  
8:20 PM 93.2 °F - 46.4 °F 20% 29.44 in - SW 9.2 mph - N/A   Clear
8:50 PM 89.6 °F - 50.0 °F 26% 29.44 in - SSW 9.2 mph - N/A   Clear
9:00 PM 95 °F - 39 °F 8% 29.30 in 12 mi SW 8.1 mph - -  
9:20 PM 86.0 °F - 51.8 °F 31% 29.47 in - SSW 6.9 mph - N/A   Clear
9:50 PM 84.2 °F - 51.8 °F 33% 29.47 in - SSW 6.9 mph - N/A   Clear
10:20 PM 84.2 °F - 50.0 °F 30% 29.50 in - South 4.6 mph - N/A   Clear
10:50 PM 82.4 °F - 48.2 °F 30% 29.50 in - SSW 6.9 mph - N/A   Clear
11:20 PM 82.4 °F - 48.2 °F 30% 29.50 in - SSE 4.6 mph - N/A   Clear
11:50 PM 80.6 °F - 50.0 °F 34% 29.50 in - SSW 3.5 mph - N/A   Clear